| time (UTC) | temp F | wind direction | speed MPH | gust MPH | rain 1hr in | rain 24hr in | rain mn in | humidity % | barometer mb |
| 20260507031315 | 42 | 275 | 1.0 | 4.0 | 0.00 | 0.07 | 0.01 | 47 | 1011.5 |
| 20260507025814 | 42 | 234 | 2.0 | 8.0 | 0.00 | 0.07 | 0.01 | 47 | 1011.6 |
| 20260507021311 | 44 | 276 | 2.0 | 6.0 | 0.00 | 0.09 | 0.01 | 44 | 1011.2 |
| 20260507015809 | 44 | 213 | 4.0 | 6.0 | 0.00 | 0.09 | 0.01 | 44 | 1011.2 |
| 20260507014313 | 45 | 241 | 1.0 | 5.0 | 0.00 | 0.09 | 0.01 | 46 | 1011.1 |
| 20260507004325 | 44 | 272 | 3.0 | 6.0 | 0.00 | 0.09 | 0.01 | 46 | 1011.2 |
| 20260507002809 | 44 | 277 | 4.0 | 6.0 | 0.00 | 0.09 | 0.01 | 44 | 1011.1 |
| 20260507001310 | 44 | 265 | 4.0 | 8.0 | 0.00 | 0.09 | 0.01 | 46 | 1011.0 |
| 20260506235811 | 45 | 279 | 3.0 | 5.0 | 0.00 | 0.09 | 0.01 | 50 | 1010.8 |
| 20260506234311 | 45 | 276 | 0.0 | 6.0 | 0.00 | 0.09 | 0.01 | 50 | 1010.7 |
| 20260506231320 | 45 | 275 | 0.0 | 6.0 | 0.01 | 0.09 | 0.01 | 49 | 1010.7 |
| 20260506225821 | 44 | 194 | 3.0 | 7.0 | 0.01 | 0.09 | 0.01 | 49 | 1010.8 |
| 20260506224321 | 44 | 232 | 5.0 | 7.0 | 0.01 | 0.09 | 0.01 | 54 | 1010.7 |
| 20260506222820 | 43 | 195 | 2.0 | 7.0 | 0.01 | 0.09 | 0.01 | 55 | 1010.8 |
| 20260506221325 | 43 | 204 | 3.0 | 7.0 | 0.00 | 0.08 | 0.00 | 55 | 1010.8 |
| 20260506214308 | 42 | 205 | 3.0 | 6.0 | 0.00 | 0.08 | 0.00 | 60 | 1010.8 |
| 20260506212808 | 42 | 271 | 0.0 | 6.0 | 0.00 | 0.08 | 0.00 | 61 | 1010.7 |
| 20260506205814 | 41 | 225 | 1.0 | 6.0 | 0.00 | 0.08 | 0.00 | 64 | 1010.7 |
| 20260506204320 | 39 | 194 | 2.0 | 5.0 | 0.00 | 0.08 | 0.00 | 69 | 1010.7 |
| 20260506202820 | 39 | 277 | 2.0 | 6.0 | 0.00 | 0.08 | 0.00 | 70 | 1010.7 |
| 20260506201324 | 38 | 176 | 0.0 | 4.0 | 0.00 | 0.08 | 0.00 | 74 | 1010.6 |
| 20260506195822 | 37 | 273 | 2.0 | 5.0 | 0.00 | 0.08 | 0.00 | 76 | 1010.6 |
| 20260506194326 | 37 | 204 | 1.0 | 5.0 | 0.00 | 0.08 | 0.00 | 78 | 1010.5 |
| 20260506191314 | 37 | 214 | 3.0 | 6.0 | 0.00 | 0.08 | 0.00 | 80 | 1010.2 |
| 20260506185813 | 36 | 188 | 3.0 | 7.0 | 0.00 | 0.08 | 0.00 | 83 | 1010.2 |
| 20260506182820 | 36 | 203 | 2.0 | 7.0 | 0.00 | 0.08 | 0.00 | 86 | 1010.0 |
| 20260506181320 | 35 | 194 | 1.0 | 7.0 | 0.00 | 0.08 | 0.00 | 88 | 1010.0 |
| 20260506174327 | 35 | 175 | 2.0 | 5.0 | 0.00 | 0.08 | 0.00 | 89 | 1009.8 |
| 20260506162823 | 34 | 225 | 0.0 | 4.0 | 0.00 | 0.08 | 0.00 | 89 | 1009.2 |
| 20260506155826 | 35 | 194 | 1.0 | 4.0 | 0.00 | 0.08 | 0.00 | 89 | 1008.9 |
| 20260506154310 | 35 | 284 | 0.0 | 3.0 | 0.00 | 0.08 | 0.00 | 89 | 1008.7 |
| 20260506151318 | 35 | 190 | 0.0 | 4.0 | 0.00 | 0.08 | 0.00 | 88 | 1008.5 |
| 20260506144324 | 35 | 192 | 2.0 | 4.0 | 0.00 | 0.08 | 0.00 | 88 | 1008.3 |
| 20260506142824 | 35 | 193 | 2.0 | 3.0 | 0.00 | 0.08 | 0.00 | 88 | 1008.2 |
| 20260506141309 | 35 | 260 | 0.0 | 3.0 | 0.00 | 0.08 | 0.00 | 89 | 1008.1 |
| 20260506135827 | 35 | 226 | 0.0 | 3.0 | 0.00 | 0.08 | 0.00 | 89 | 1007.9 |
| 20260506134312 | 36 | 261 | 1.0 | 3.0 | 0.00 | 0.08 | 0.00 | 89 | 1007.8 |
| 20260506132811 | 36 | 261 | 0.0 | 3.0 | 0.00 | 0.08 | 0.00 | 89 | 1007.5 |
| 20260506131311 | 36 | 236 | 1.0 | 3.0 | 0.00 | 0.08 | 0.00 | 89 | 1007.4 |
| 20260506125812 | 36 | 281 | 1.0 | 4.0 | 0.00 | 0.08 | 0.00 | 89 | 1007.4 |
| 20260506124312 | 36 | 263 | 0.0 | 4.0 | 0.00 | 0.08 | 0.00 | 89 | 1007.2 |
| 20260506121321 | 37 | 271 | 2.0 | 5.0 | 0.00 | 0.08 | 0.00 | 90 | 1006.8 |
| 20260506115823 | 37 | 271 | 0.0 | 5.0 | 0.00 | 0.08 | 0.00 | 90 | 1006.7 |
| 20260506114323 | 37 | 264 | 0.0 | 5.0 | 0.00 | 0.08 | 0.00 | 90 | 1006.4 |
| 20260506112826 | 38 | 249 | 1.0 | 5.0 | 0.00 | 0.08 | 0.00 | 90 | 1006.3 |
| 20260506111327 | 38 | 210 | 0.0 | 2.0 | 0.00 | 0.08 | 0.00 | 91 | 1006.0 |
| 20260506105808 | 38 | 270 | 0.0 | 2.0 | 0.00 | 0.08 | 0.00 | 90 | 1006.1 |
| 20260506102817 | 38 | 269 | 0.0 | 0.0 | 0.00 | 0.08 | 0.00 | 90 | 1005.7 |
| 20260506101318 | 38 | 269 | 0.0 | 0.0 | 0.00 | 0.08 | 0.00 | 90 | 1005.5 |
| 20260506095820 | 38 | 270 | 0.0 | 0.0 | 0.00 | 0.08 | 0.00 | 90 | 1005.1 |
| 20260506094320 | 38 | 270 | 0.0 | 0.0 | 0.00 | 0.08 | 0.00 | 90 | 1005.1 |
| 20260506091327 | 39 | 270 | 0.0 | 1.0 | 0.00 | 0.08 | 0.00 | 89 | 1004.7 |
| 20260506085825 | 39 | 269 | 0.0 | 1.0 | 0.00 | 0.08 | 0.00 | 89 | 1004.5 |
| 20260506084310 | 40 | 294 | 0.0 | 6.0 | 0.01 | 0.08 | 0.00 | 89 | 1004.3 |
| 20260506082809 | 40 | 284 | 0.0 | 0.0 | 0.03 | 0.08 | 0.00 | 89 | 1004.2 |
| 20260506081313 | 40 | 284 | 0.0 | 2.0 | 0.03 | 0.08 | 0.00 | 88 | 1004.0 |
| 20260506072816 | 41 | 227 | 2.0 | 3.0 | 0.02 | 0.05 | 0.05 | 87 | 1004.0 |
| 20260506071320 | 41 | 294 | 2.0 | 4.0 | 0.03 | 0.05 | 0.05 | 86 | 1003.9 |
| 20260506061326 | 43 | 280 | 0.0 | 3.0 | 0.00 | 0.02 | 0.02 | 82 | 1003.3 |
| 20260506041328 | 44 | 273 | 1.0 | 7.0 | 0.00 | 0.02 | 0.02 | 78 | 1002.6 |